Regional Weather Roundup
Issued by NWS

Home | Current Version | Previous Version | Graphics & Text | Print | Product List | Glossary On
Versions: 1 2 3 4 5 6 7 8 9 10 11 12 13 14 15 16 17 18 19 20 21 22 23 24 25 26 27 28 29 30 31 32 33 34 35 36 37 38 39 40 41 42 43 44 45 46 47 48 49 50
000
ASUS44 KMEG 281810
RWRTN
TENNESSEE HOURLY STATE WEATHER ROUNDUP
NATIONAL WEATHER SERVICE MEMPHIS TN
1200 PM CST SAT FEB 28 2015

TNZ002-004-019-021-049-052-054-088>092-281900-
WEST TENNESSEE

CITY           SKY/WX    TMP DP  RH WIND       PRES   REMARKS
MEMPHIS INTL   PTSUNNY   37  15  40 NE8       30.51F WCI  31
NWS MEMPHIS      N/A     35 N/A N/A MISG        N/A
JACKSON        CLOUDY    37  15  40 E5        30.53F WCI  33
DYERSBURG      CLOUDY    30  10  43 E8        30.57F WCI  23
UNION CITY     MOSUNNY   28  18  64 NE6       30.55F WCI  22
PARIS          MOSUNNY   30  16  55 E6        30.55F WCI  24
LEXINGTON      CLOUDY    37  12  35 NE6       30.52F WCI  33
SAVANNAH       SUNNY     43  16  33 CALM      30.51F
$$

TNZ008-025-027-028-033-062-065-066-281900-
NORTH MIDDLE TENNESSEE

CITY           SKY/WX    TMP DP  RH WIND       PRES   REMARKS
NASHVILLE      CLOUDY    38  16  40 CALM      30.57F
CLARKSVILLE    CLOUDY    32  18  56 NE6       30.57F WCI  26
SMYRNA         PTSUNNY   40  18  41 VRB3      30.57F
COOKEVILLE     SUNNY     46  28  49 CALM      30.52F
CROSSVILLE     MOSUNNY   43  27  53 S8        30.51F
$$

TNZ061-075-076-078-094-096-097-281900-
SOUTH MIDDLE TENNESSEE

CITY           SKY/WX    TMP DP  RH WIND       PRES   REMARKS
FAYETTEVILLE   SUNNY     46  28  49 SE5         N/A
TULLAHOMA      SUNNY     46  27  46 E7        30.51F
WINCHESTER     SUNNY     46  30  53 SE12      30.51F
MCMINNVILLE    MOSUNNY   45  25  45 SE3       30.52F
COLUMBIA         N/A     41  21  45 NE3       30.50F
SHELBYVILLE    PTSUNNY   46  27  46 S6        30.53F
$$

TNZ017-018-042-046-047-281900-
NORTHEAST TENNESSEE

CITY           SKY/WX    TMP DP  RH WIND       PRES   REMARKS
TRI CITIES     PTSUNNY   40  20  44 NE3       30.57F
ELIZABETHTON   CLEAR     39  23  52 SE6       30.56F WCI  35
$$

TNZ012-013-036-069-073-074-281900-
CENTRAL EAST TENNESSEE

CITY           SKY/WX    TMP DP  RH WIND       PRES   REMARKS
KNOXVILLE      PTSUNNY   37  21  52 NE7       30.58F WCI  32
OAK RIDGE      SUNNY     41  20  43 CALM      30.59F
GATLINBURG     CLEAR     36  21  55 CALM      30.57F
MORRISTOWN     CLEAR     39  21  48 CALM      30.56F
$$

TNZ083-085-099-281900-
SOUTHEAST TENNESSEE

CITY           SKY/WX    TMP DP  RH WIND       PRES   REMARKS
CHATTANOOGA    PTSUNNY   45  26  47 SE9       30.57F
$$

SKY/WX REPORTED AS FAIR MEANS FEW OR NO CLOUDS BELOW
12 THOUSAND FEET.




USA.gov is the U.S. government's official web portal to all federal, state and local government web resources and services.